[[{"header":{"parameterUnit":"m.s-1","parameterCategory":1,"la1":30.2991,"la2":30.254,"lo1":-89.0895,"lo2":-89.0444,"dy":0.0017,"dx":0.0017,"nx":28,"ny":28,"refTime":"2025-08-28T03:00:00:Z","depth":0,"parameterNumber":2,"parameterNumberName":"U-component_of_WINDS"},"data":[0,0,0,0,0,0,0,0,0,0,0,0,0,0,0,0,0,0,0,0,0,0,0,0,0,0,0,0,0,0,0,0,0,0,0,0,0,0,0,0,0,0,0,0,0,0,0,0,0,0,0,0,0,0,0,0,0,0,-1.1364,-1.1363,0,-1.125,-1.1248,-1.1247,-1.1151,-1.115,-1.1149,-1.1148,-1.1029,-1.1027,-1.1025,0,0,0,0,0,0,0,0,0,0,0,0,0,-1.1501,-1.1499,-1.1365,-1.1363,-1.1362,-1.125,-1.1248,-1.1247,-1.1152,-1.115,-1.1149,-1.1148,-1.103,-1.1027,-1.1024,0,0,0,0,0,0,0,0,0,0,0,0,0,-1.1419,-1.1498,-1.1365,-1.1301,-1.1294,-1.125,-1.1248,-1.1246,-1.1152,-1.115,-1.1149,-1.1147,-1.1031,-1.1027,-1.1024,-1.1034,0,0,-1.1014,-1.1012,0,0,0,0,0,0,0,0,-1.1424,-1.1414,-1.1312,-1.1305,-1.1297,-1.1213,-1.1252,-1.1175,-1.1152,-1.1206,-1.1148,-1.1147,-1.1091,-1.1083,-1.1065,-1.1028,-1.1023,-1.1013,-1.1011,-1.101,-1.1009,0,0,0,0,0,0,0,-1.143,-1.1419,-1.1319,-1.131,-1.1302,-1.1278,-1.1264,-1.1237,-1.1158,-1.1201,-1.1194,-1.1182,-1.1087,-1.1068,-1.1061,-1.1021,-1.1014,-1.1011,-1.1009,-1.1007,-1.0989,-1.099,0,0,0,0,0,0,-1.1446,-1.1424,-1.1323,-1.1316,-1.1358,-1.1276,-1.1262,-1.1242,-1.1159,-1.1144,-1.1183,-1.1178,-1.1075,-1.1065,-1.1057,-1.1063,-1.101,-1.1007,-1.1005,-1.0987,-1.0989,-1.099,0,0,0,0,0,0,-1.1449,-1.1437,-1.1327,-1.1368,-1.1352,-1.1276,-1.1254,-1.124,-1.1221,-1.1145,-1.113,-1.1178,-1.1073,-1.1061,-1.1041,-1.1058,-1.1005,-1.1002,-1.0985,-1.0988,-1.099,-1.1076,0,0,0,0,0,0,-1.1453,-1.1439,-1.1442,-1.1369,-1.135,-1.1314,-1.1255,-1.1239,-1.1216,-1.1208,-1.1136,-1.1123,-1.1071,-1.1046,-1.1037,-1.1052,-1.1,-1.0983,-1.0986,-1.0989,-1.1071,-1.1081,-1.1089,0,0,0,0,0,-1.1458,-1.147,-1.1443,-1.1431,-1.1353,-1.1315,-1.1304,-1.1244,-1.1218,-1.122,-1.1171,-1.1125,-1.1058,-1.1045,-1.1034,-1.1048,-1.0982,-1.0985,-1.0989,-1.1067,-1.1079,-1.1089,0,0,0,0,0,0,-1.1546,-1.1459,-1.1428,-1.1417,-1.1374,-1.1299,-1.13,-1.1259,-1.1222,-1.1216,-1.1143,-1.1127,-1.1115,-1.1079,-1.1067,-1.1054,-1.1014,-1.1015,-1.1077,-1.1088,-1.1097,-1.1105,-1.0997,0,0,0,0,0,-1.1565,-1.1542,-1.1467,-1.1464,-1.1445,-1.1377,-1.1358,-1.1316,-1.1268,-1.1249,-1.1199,-1.1154,-1.1123,-1.1103,-1.107,-1.1066,-1.105,-1.1071,-1.108,-1.1088,-1.1089,-1.1086,-1.1094,-1.1002,-1.1002,-1.1002,0,0,-1.1602,-1.1552,-1.1541,-1.1481,-1.1443,-1.1421,-1.1362,-1.134,-1.1323,-1.1246,-1.1223,-1.1185,-1.1131,-1.1119,-1.1111,-1.1089,-1.1112,-1.1092,-1.1099,-1.1096,-1.109,-1.1099,-1.1107,-1.1004,-1.1004,-1.1003,0,0,-1.1658,-1.1618,-1.1612,-1.1576,-1.1519,-1.1474,-1.1473,-1.1404,-1.1376,-1.1353,-1.1295,-1.1273,-1.1221,-1.1184,-1.1159,-1.1205,-1.1161,-1.1196,-1.1242,-1.124,-1.1247,-1.1253,-1.1269,-1.1276,-1.1198,-1.1198,-1.1199,0,-1.1711,-1.1676,-1.1614,-1.1596,-1.1571,-1.1502,-1.1495,-1.1463,-1.1399,-1.1383,-1.136,-1.1293,-1.1251,-1.123,-1.1242,-1.1224,-1.122,-1.1203,-1.1251,-1.1256,-1.1261,-1.1276,-1.1282,-1.1203,-1.1203,-1.1202,-1.1202,0,-1.1744,-1.1721,-1.1722,-1.1663,-1.1638,-1.1627,-1.1563,-1.1545,-1.1506,-1.1464,-1.1442,-1.139,-1.1345,-1.1337,-1.1298,-1.1311,-1.1299,-1.1265,-1.1223,-1.1276,-1.1288,-1.1293,-1.121,-1.1208,-1.1207,-1.1205,0,0,-1.185,-1.1759,-1.176,-1.1733,-1.1667,-1.1647,-1.1633,-1.1591,-1.1577,-1.1536,-1.1522,-1.148,-1.1448,-1.142,-1.1376,-1.1374,-1.1414,-1.1339,-1.1337,-1.1355,-1.1426,-1.1452,-1.1459,-1.1386,-1.1386,-1.1387,-1.143,0,-1.1896,-1.1866,-1.181,-1.1798,-1.1776,-1.1711,-1.1698,-1.1657,-1.1617,-1.1592,-1.1548,-1.152,-1.148,-1.1462,-1.1457,-1.141,-1.1427,-1.1406,-1.1371,-1.1371,-1.1386,-1.1466,-1.1493,-1.1536,-1.1435,-1.1435,-1.1436,0,-1.1944,-1.1907,-1.1894,-1.183,-1.1819,-1.1809,-1.1766,-1.1743,-1.1695,-1.1667,-1.1637,-1.1589,-1.1571,-1.1534,-1.1507,-1.1495,-1.1477,-1.1453,-1.1453,-1.1446,-1.1406,-1.1461,-1.1548,-1.1555,-1.1443,-1.1443,-1.1442,0,-1.2023,-1.197,-1.1955,-1.1934,-1.186,-1.1855,-1.1823,-1.1774,-1.1752,-1.1715,-1.1701,-1.1662,-1.1641,-1.1612,-1.1556,-1.1534,-1.1536,-1.1494,-1.1512,-1.1513,-1.1514,-1.1514,-1.1599,-1.1505,-1.1504,-1.1504,-1.1504,0,-1.2078,-1.2072,-1.199,-1.1981,-1.1972,-1.1909,-1.1903,-1.1865,-1.1822,-1.1805,-1.1747,-1.1731,-1.1659,-1.1635,-1.1592,-1.1577,-1.1568,-1.1544,-1.1532,-1.1549,-1.1552,-1.1535,-1.1531,-1.1506,-1.1506,-1.1505,-1.1505,0,-1.2164,-1.2109,-1.2088,-1.2021,-1.2004,-1.2001,-1.1943,-1.1931,-1.189,-1.1868,-1.186,-1.1794,-1.1763,-1.1705,-1.1658,-1.1629,-1.1624,-1.1603,-1.164,-1.1633,-1.1654,-1.1652,-1.173,-1.1737,-1.1639,-1.164,-1.1641,0,-1.2203,-1.2197,-1.2129,-1.2114,-1.2085,-1.2061,-1.2039,-1.1978,-1.1957,-1.1903,-1.1899,-1.1864,-1.1833,-1.1788,-1.1735,-1.17,-1.1678,-1.1708,-1.1672,-1.1689,-1.1678,-1.1679,-1.1678,-1.1715,-1.1717,-1.1718,-1.1719,0,-1.2277,-1.2251,-1.2222,-1.2185,-1.2161,-1.2128,-1.2092,-1.2083,-1.2013,-1.1993,-1.1962,-1.1938,-1.1891,-1.1858,-1.1815,-1.1782,-1.1739,-1.1731,-1.1733,-1.1749,-1.1771,-1.1759,-1.1661,-1.1729,-1.1728,-1.1727,-1.1727,-1.1726,-1.234,-1.2332,-1.2284,-1.2254,-1.2221,-1.219,-1.2176,-1.2133,-1.2106,-1.2064,-1.2029,-1.2001,-1.1955,-1.1893,-1.1863,-1.1841,-1.182,-1.1823,-1.1823,-1.1825,-1.1832,-1.1776,-1.1833,-1.1832,-1.1832,-1.1832,-1.1831,0,-1.2411,-1.2378,-1.2351,-1.2303,-1.2281,-1.2244,-1.2202,-1.2186,-1.2162,-1.2122,-1.2094,-1.2058,-1.2026,-1.1973,-1.1936,-1.1928,-1.1908,-1.1921,-1.192,-1.1914,-1.1853,-1.1854,-1.1938,-1.1938,-1.1938,-1.1938,-1.1938,-1.1938,-1.2445,-1.243,-1.2399,-1.2367,-1.2333,-1.2306,-1.2285,-1.2256,-1.2224,-1.2188,-1.2161,-1.2127,-1.2082,-1.2042,-1.2011,-1.1997,-1.1986,-1.2005,-1.1984,-1.1928,-1.1918,-1.1908,-1.1909,-1.2003,-1.2003,-1.2047,-1.2047,-1.2047]},{"header":{"parameterUnit":"m.s-1","parameterCategory":1,"la1":30.2991,"la2":30.254,"lo1":-89.0895,"lo2":-89.0444,"dy":0.0017,"dx":0.0017,"nx":28,"ny":28,"refTime":"2025-08-28T03:00:00:Z","depth":0,"parameterNumber":3,"parameterNumberName":"V-component_of_WINDS"},"data":[0,0,0,0,0,0,0,0,0,0,0,0,0,0,0,0,0,0,0,0,0,0,0,0,0,0,0,0,0,0,0,0,0,0,0,0,0,0,0,0,0,0,0,0,0,0,0,0,0,0,0,0,0,0,0,0,0,0,2.9858,2.9857,0,2.9805,2.9804,2.9803,2.9815,2.9816,2.9817,2.9818,2.9755,2.9752,2.975,0,0,0,0,0,0,0,0,0,0,0,0,0,2.9962,2.996,2.9858,2.9857,2.9857,2.9805,2.9804,2.9803,2.9814,2.9816,2.9817,2.9818,2.9756,2.9752,2.9749,0,0,0,0,0,0,0,0,0,0,0,0,0,2.9914,2.996,2.9858,2.9856,2.9855,2.9805,2.9804,2.9803,2.9814,2.9816,2.9817,2.9819,2.9757,2.9753,2.9749,2.9694,0,0,2.9737,2.9735,0,0,0,0,0,0,0,0,2.9916,2.991,2.9857,2.9856,2.9855,2.9818,2.9818,2.9766,2.9814,2.983,2.9818,2.9819,2.9774,2.9769,2.9755,2.9691,2.9689,2.9737,2.9734,2.9732,2.9731,0,0,0,0,0,0,0,2.992,2.9912,2.9837,2.9856,2.9855,2.9856,2.985,2.9808,2.9794,2.9828,2.9829,2.9823,2.9774,2.9759,2.9754,2.9688,2.9737,2.9733,2.9731,2.9729,2.9576,2.9575,0,0,0,0,0,0,2.9925,2.9915,2.9838,2.9835,2.9891,2.9853,2.9847,2.9828,2.9794,2.9791,2.9822,2.9824,2.9765,2.9758,2.9752,2.9685,2.9733,2.9729,2.9727,2.9578,2.9576,2.9574,0,0,0,0,0,0,2.9927,2.9918,2.984,2.9875,2.9865,2.9849,2.9828,2.9826,2.9812,2.9789,2.9786,2.981,2.9766,2.9757,2.9709,2.9683,2.9727,2.9724,2.958,2.9577,2.9575,2.9551,0,0,0,0,0,0,2.993,2.9919,2.9899,2.9875,2.9864,2.9801,2.9827,2.9824,2.9806,2.9808,2.9777,2.9773,2.9766,2.9715,2.9705,2.9678,2.972,2.9582,2.9579,2.9576,2.9554,2.9548,2.9543,0,0,0,0,0,2.9934,2.9893,2.9898,2.9889,2.9839,2.9799,2.9792,2.9787,2.9804,2.9783,2.9769,2.9774,2.9688,2.971,2.9699,2.967,2.9584,2.958,2.9576,2.9557,2.9549,2.9543,0,0,0,0,0,0,2.9912,2.989,2.9895,2.9846,2.9825,2.9801,2.9775,2.978,2.9751,2.9754,2.9747,2.974,2.9691,2.9676,2.9701,2.9616,2.9638,2.9632,2.9627,2.962,2.9614,2.9618,2.9717,0,0,0,0,0,2.9902,2.9874,2.9855,2.9813,2.9803,2.9791,2.9773,2.9771,2.9748,2.9738,2.972,2.9695,2.9662,2.9641,2.9609,2.9553,2.9546,2.9528,2.9523,2.9518,2.9512,2.948,2.9472,2.9561,2.9561,2.9561,0,0,2.9879,2.9864,2.9846,2.9808,2.9792,2.976,2.9783,2.9748,2.9724,2.9732,2.9686,2.9672,2.9644,2.9591,2.9567,2.9577,2.9486,2.9513,2.951,2.9506,2.9476,2.9467,2.946,2.9559,2.9559,2.956,0,0,2.9823,2.9809,2.9773,2.9756,2.9732,2.9725,2.9716,2.9693,2.9684,2.9639,2.9644,2.9615,2.9558,2.9538,2.952,2.9458,2.9461,2.9447,2.9417,2.9386,2.9379,2.9373,2.9349,2.9341,2.9442,2.9442,2.9442,0,2.9797,2.9753,2.9752,2.9718,2.9701,2.971,2.9672,2.9655,2.962,2.9607,2.962,2.9551,2.9532,2.9475,2.946,2.9445,2.9433,2.9449,2.9381,2.9374,2.9368,2.9345,2.9337,2.944,2.944,2.9441,2.9441,0,2.9722,2.9691,2.9664,2.9634,2.9613,2.9577,2.9569,2.9548,2.9549,2.954,2.9493,2.9472,2.9436,2.9423,2.9422,2.9365,2.9372,2.9383,2.9404,2.9358,2.9337,2.9328,2.9438,2.9438,2.9439,2.9439,0,0,2.9647,2.9619,2.9609,2.9595,2.957,2.9545,2.9509,2.9477,2.9458,2.9435,2.9403,2.9356,2.9367,2.9347,2.9344,2.9317,2.9267,2.9331,2.933,2.9318,2.9202,2.9192,2.9182,2.9271,2.9269,2.9268,2.9204,0,2.9587,2.9526,2.9525,2.9468,2.9438,2.9447,2.9416,2.9395,2.9386,2.9358,2.9347,2.9314,2.9331,2.9319,2.9293,2.9279,2.9243,2.9284,2.9238,2.9237,2.9243,2.9171,2.9161,2.9101,2.9195,2.9194,2.9193,0,2.9507,2.9484,2.9425,2.9405,2.9392,2.9364,2.9335,2.9309,2.9286,2.9281,2.926,2.9261,2.9222,2.9247,2.9192,2.922,2.9201,2.9191,2.9189,2.9182,2.921,2.9161,2.9082,2.9072,2.918,2.9181,2.9182,0,2.9457,2.9411,2.9369,2.9357,2.9333,2.9313,2.9301,2.9281,2.9262,2.9236,2.9223,2.9192,2.9174,2.9149,2.9141,2.916,2.9085,2.911,2.9078,2.9078,2.9059,2.906,2.8975,2.9051,2.9052,2.9052,2.9052,0,2.9388,2.9351,2.9346,2.932,2.9279,2.9278,2.9236,2.9226,2.9207,2.9178,2.9184,2.9155,2.9148,2.9118,2.9112,2.9066,2.9058,2.9052,2.905,2.905,2.905,2.9036,2.9039,2.9049,2.905,2.905,2.9051,0,2.9323,2.9319,2.9274,2.9256,2.9251,2.9221,2.9204,2.9178,2.9171,2.9134,2.9125,2.9112,2.9077,2.9068,2.9025,2.9021,2.8967,2.897,2.8975,2.8975,2.8942,2.8945,2.8842,2.8828,2.8916,2.8915,2.8915,0,2.9278,2.9251,2.923,2.9213,2.9201,2.9172,2.9154,2.9152,2.9132,2.9105,2.9082,2.9048,2.9021,2.8964,2.895,2.8917,2.8918,2.8885,2.8913,2.8914,2.8915,2.8916,2.8913,2.8878,2.8877,2.8877,2.8876,0,2.9199,2.9199,2.9174,2.9148,2.9126,2.9105,2.9084,2.9069,2.9064,2.9041,2.9007,2.8986,2.8945,2.891,2.8878,2.8863,2.8867,2.8868,2.8858,2.8856,2.886,2.8856,2.8958,2.8869,2.887,2.887,2.8871,2.8871,2.9141,2.9117,2.91,2.9071,2.9056,2.9037,2.9012,2.9003,2.8976,2.8943,2.8944,2.8906,2.8884,2.8841,2.8825,2.8794,2.8804,2.879,2.8787,2.8783,2.8779,2.8868,2.8788,2.8789,2.8789,2.8789,2.8789,0,2.9061,2.9051,2.9025,2.8998,2.8975,2.8985,2.8963,2.8943,2.891,2.8891,2.8865,2.8825,2.8793,2.8777,2.8744,2.8722,2.8723,2.8713,2.8713,2.871,2.8773,2.8784,2.8713,2.8713,2.8713,2.8713,2.8713,2.8713,2.9016,2.8975,2.8973,2.8924,2.8914,2.8879,2.8866,2.8848,2.8832,2.8789,2.8763,2.8754,2.8735,2.8701,2.8671,2.8667,2.8653,2.8642,2.8638,2.8697,2.8705,2.8712,2.8722,2.8639,2.8639,2.8577,2.8577,2.8576]}]]